Regional Weather Roundup
Issued by NWS Upton, NY

Current Version | Previous Version | Graphics & Text | Print | Product List | Glossary Off
Versions: 1 2 3 4 5 6 7 8 9 10 11 12 13 14 15 16 17 18 19 20 21 22 23 24 25 26 27 28 29 30 31 32 33 34 35 36 37 38 39 40 41 42 43 44 45 46 47 48 49 50

474
ASUS41 KOKX 190208
RWROKX

REGIONAL WEATHER ROUNDUP
NATIONAL WEATHER SERVICE NEW YORK NY
900 PM EST WED JAN 18 2017

NOTE: "FAIR" INDICATES FEW OR NO CLOUDS BELOW 12,000 FEET WITH NO
SIGNIFICANT WEATHER AND/OR OBSTRUCTIONS TO VISIBILITY.

NYZ071-072-176-178-NJZ106-104-190300-
NEW YORK CITY METRO AREA

CITY           SKY/WX    TMP DP  RH WIND       PRES   REMARKS
Central Park   CLOUDY    40  36  86 CALM      30.05R
Wall St Helipt CLOUDY    42  37  82 E3        30.04S
Bronx Bot Gard NOT AVBL
LaGuardia APRT CLOUDY    42  37  82 N3        30.03S
Kennedy INTL   CLOUDY    41  36  82 N8        30.04F
Breezy Point   NOT AVBL
Newark/Liberty MOCLDY    40  35  83 N6        30.03F
Teterboro      CLOUDY    41  36  82 N3        30.04R
$$

NYZ177-179-078>081-190300-
LONG ISLAND NEW YORK

CITY           SKY/WX    TMP DP  RH WIND       PRES   REMARKS
Jones Beach    NOT AVBL
Matinecock PT  NOT AVBL
Farmingdale    CLOUDY    39  37  92 NE7       30.01F WCI  34
MacArthur/ISP  CLOUDY    39  37  92 N7        30.01F WCI  34
Shirley        CLOUDY    38  37  97 N7        30.02F WCI  33
Westhampton    CLOUDY    39  36  89 N9        30.02F WCI  33
Southampton    NOT AVBL
Bridgehampton  NOT AVBL
East Hampton   CLOUDY    37  36  95 N5        30.00F WCI  34
Montauk          N/A     39  38  96 N8        30.01F WCI  33
$$

NYZ052-065-067-190300-
HUDSON VALLEY

CITY           SKY/WX    TMP DP  RH WIND       PRES   REMARKS
White Plains   MOCLDY    38  35  89 NW6       30.01S WCI  33
Newburgh       CLOUDY    37  37 100 CALM      30.04S
Montgomery     CLOUDY    36  35  96 CALM      30.01S
Poughkeepsie   FOG       35  35 100 CALM      30.03S VSB 3/4
Albany         DRZL/FOG  36  34  92 S3        30.03S VSB 1
$$

NJZ001-105-106-008-010-013-015-019>022-104-190300-
NEW JERSEY

CITY           SKY/WX    TMP DP  RH WIND       PRES   REMARKS
Newark/Liberty MOCLDY    40  35  83 N6        30.03F
Teterboro      CLOUDY    41  36  82 N3        30.04R
Caldwell       CLOUDY    39  36  89 CALM      30.04R
Somerville     CLOUDY    40  37  89 CALM      30.02S
Linden         CLOUDY    41  36  81 CALM      30.04R
Sussex         CLOUDY    36  36 100 CALM      30.02F FOG
Andover          N/A     35  35 100 CALM      30.02F
Trenton        CLOUDY    41  37  86 N5        30.02F
Millville      CLOUDY    45  41  86 N3        30.04R
Atlantic City  CLEAR     40  35  83 NW6       30.03S
Wrightstown    PTCLDY    37  35  90 VRB5      30.00S WCI  34
Toms River     PTCLDY    37  36  96 NW3       30.04S FOG
Belmar         MOCLDY    39  37  92 NW6       30.04R WCI  35
$$

PAZ047>061-062-071-190300-
EASTERN PENNSYLVANIA

CITY           SKY/WX    TMP DP  RH WIND       PRES   REMARKS
Philadelphia   CLOUDY    46  39  76 N3        30.05R
Allentown      CLOUDY    43  37  79 CALM      30.03S
Scranton       CLOUDY    38  38 100 CALM      30.01S FOG
$$

CTZ002-004>006-009-010-012-RIZ004-006-007-MAZ004-011-015-190300-
SOUTHERN NEW ENGLAND
 IN CT

CITY           SKY/WX    TMP DP  RH WIND       PRES   REMARKS
Bradley INTL   DRIZZLE   35  33  92 NE5       30.02F WCI  31
Hartford       CLOUDY    36  33  89 N6        30.03F WCI  31
Danbury        CLOUDY    37  34  89 CALM      30.02F
Wtrbury/Oxford CLOUDY    36  30  80 NE5       30.00F WCI  32
Bridgeport     CLOUDY    40  35  83 NE6       30.01F
Meriden        CLOUDY    38  33  82 N5        30.02F WCI  34
New Haven      CLOUDY    36  34  92 N8        30.01F WCI  30
Chester        CLOUDY    36  36 100 N7        30.00F FOG     WCI  30
Groton         CLOUDY    37  35  92 N9        30.01F WCI  30
Wilimantic     CLOUDY    37  35  92 N3        30.03F

 IN RI

CITY           SKY/WX    TMP DP  RH WIND       PRES   REMARKS
Providence     CLOUDY    36  34  92 N9        30.03S FOG     WCI  29
Block Island   NOT AVBL
Westerly       CLOUDY    39  35  86 N8        30.02S WCI  33
 IN MA

CITY           SKY/WX    TMP DP  RH WIND       PRES   REMARKS
Boston         DRIZZLE   33  33 100 N6        30.04F FOG     WCI  28
Worcester      FOG       30  29  96 N7        29.99F VSB 1/4 WCI  23
Westfield      CLOUDY    34  33  96 N5        30.02F WCI  30
Provincetown   CLOUDY    40  35  83 E10       30.02S WCI  33
Nantucket      CLOUDY    41  39  93 NE10      29.97R
$$

ANZ330-335-338-340-345-350-353-355-190300-
COASTAL MARINE OBSERVATIONS


STATION/POSITION TIME  SKY/WX   TEMP    WIND        PRES    VSBY  WAVE
                                AIR SEA DIR/SP/G                  HT/PER
                 (UTC)          (F)     (DEG/KT/KT) (MB)    (MI)  (FT/S)
NY HARB ENTRANCE 0050            42 44  350/ 14/ 16 1016.8          4/ 7
20 S FIRE ISLAND 0050            41 45  360/ 17/ 21 1015.8          6/ 7
GREAT SOUTH BAY  NOT AVBL
23 SSW MONTAUK P 0050            43 46  360/ 16/ 19 1015.8          7/ 7
15 E BARNEGAT LI 0130               47                N/A           6/ 7
HUDSON CANYON    0050            48 52              1013.7          7/ 7
KINGS POINT      0130            39 38              1016.6
EXECUTION ROCKS  0145            40     120/  2/  2   N/A
CENTRAL LI SOUND 0130            39     360/ 12/ 14   N/A           1/ 2
EASTERN LI SOUND NOT AVBL
ROBBINS REEF     0130            41     350/  6/  7 1017.1
$$


>>>>>>>>>>>>>>>>>>>>>>>>>>>> KEY <<<<<<<<<<<<<<<<<<<<<<<<<<<
>                                                          <
>     SKY/WX - Sky Condition/Present Weather               <
>     TMP    - Temperature in Fahrenheit                   <
>     DP     - Dew Point in Fahrenheit                     <
>     RH     - Relative Humidity in Percent                <
>     WIND   - Direction (from) and Speed in MPH           <
>     PRES   - Mean Sea Level Pressure (inches of Hg)      <
>     WCI    - Wind Chill Index                            <
>     VSB    - VISIBILITY IN MILES                         <
>     HX     - HEAT INDEX                                  <
>     TC     - TEMPERATURE IN CELSIUS                      <
>     VRB    - VARIABLE WIND DIRECTION                     <
>                                                          <
>>>>>>>>>>>>>>>>>>>>>>>>>>>> KEY <<<<<<<<<<<<<<<<<<<<<<<<<<<




USA.gov is the U.S. government's official web portal to all federal, state and local government web resources and services.